{"data":{"norad_id":53197,"epoch":"2026-05-25T02:54:58.101120Z","epoch_age_seconds":57745,"freshness":"FRESH","line1":"1 53197U 22084J   26145.12150580  .00000531  00000+0  40865-4 0  9996","line2":"2 53197  97.4493 205.0382 0001904 148.2420 211.8922 15.05650210210809","mean_motion":15.0565021,"eccentricity":0.0001904,"inclination_deg":97.4493,"raan_deg":205.0382,"arg_perigee_deg":148.242,"mean_anomaly_deg":211.8922,"bstar":4.0865e-5,"rev_number":21080,"period_min":95.639743576299,"perigee_km":548.19148579912,"apogee_km":550.82953397089,"semimajor_km":6927.647509885,"source":"CELESTRAK","updated_at":"2026-05-25T13:38:17.349601Z"}}